Farmingdale, NY

3:22 AM EDT on September 17, 2019 (GMT -0400)
Republic

Weather History for KFRG - August, 2019

Change the Weather History Date:

Saturday, August 24, 2019

  Actual Average Record
Temperature  
Mean Temperature 68 °F -  
Max Temperature 75 °F 78 °F 87 °F (1998)
Min Temperature 62 °F 63 °F 57 °F (2003)
Cooling Degree Days 4    
Growing Degree Days 18 (Base 50)    
Moisture  
Dew Point 53 °F    
Average Humidity 60    
Maximum Humidity 84    
Minimum Humidity 40    
Precipitation  
Precipitation 0.00 in - - ()
Sea Level Pressure  
Sea Level Pressure 30.16 in    
Wind  
Wind Speed 7 mph ()    
Max Wind Speed 14 mph    
Max Gust Speed 18 mph    
Visibility 10.0 miles    
Events      
Averages and records for this station are not official NWS values.
T = Trace of Precipitation, MM = Missing Value Source: Averaged Metar Reports

Daily Weather History Graph

Daily Weather History Graph

Search for Another Location

Airport or City:

Astronomy

Aug. 24, 2019 Rise Set
Actual Time 6:12 AM EDT 7:38 PM EDT
Civil Twilight 5:43 AM EDT 8:07 PM EDT
Nautical Twilight 5:09 AM EDT 8:41 PM EDT
Astronomical Twilight 4:32 AM EDT 9:18 PM EDT
Moon 12:03 AM EDT (8/24) 2:52 PM EDT (8/24)
Length of Visible Light 14h 23m
Length of Day
13h 26m
Last Quarter, 39% of the Moon is Illuminated
Aug 24
Last Quarter
Aug 30
New
Sep 5
First Quarter
Sep 14
Full
Sep 21
Last Quarter

Hourly Weather History & Observations

Time (EDT) Temp. Dew Point Humidity Pressure Visibility Wind Dir Wind Speed Gust Speed Precip Events Conditions
12:53 AM 66.0 °F 57.0 °F 73% 30.06 in 10.0 mi North 8.1 mph - N/A   Clear
1:53 AM 63.0 °F 57.9 °F 84% 30.05 in 10.0 mi NNE 6.9 mph - N/A   Clear
2:53 AM 64.0 °F 57.9 °F 80% 30.06 in 10.0 mi North 8.1 mph - N/A   Clear
4:53 AM 62.1 °F 55.0 °F 78% 30.09 in 10.0 mi NNE 8.1 mph - N/A   Clear
5:53 AM 62.1 °F 53.1 °F 72% 30.11 in 10.0 mi NNE 8.1 mph - N/A   Mostly Cloudy
6:53 AM 63.0 °F 54.0 °F 72% 30.13 in 10.0 mi NNE 8.1 mph - N/A   Mostly Cloudy
7:53 AM 64.9 °F 54.0 °F 68% 30.15 in 10.0 mi NNE 10.4 mph - N/A   Clear
8:53 AM 66.9 °F 51.1 °F 57% 30.16 in 10.0 mi North 13.8 mph - N/A   Clear
9:53 AM 69.1 °F 50.0 °F 51% 30.17 in 10.0 mi NE 10.4 mph - N/A   Clear
10:53 AM 70.0 °F 46.9 °F 44% 30.17 in 10.0 mi North 13.8 mph - N/A   Clear
11:53 AM 72.0 °F 51.1 °F 48% 30.17 in 10.0 mi NNE 10.4 mph - N/A   Clear
12:53 PM 73.9 °F 51.1 °F 45% 30.17 in 10.0 mi NE 11.5 mph 18.4 mph N/A   Clear
1:53 PM 73.9 °F 48.9 °F 41% 30.17 in 10.0 mi North 6.9 mph - N/A   Clear
2:53 PM 73.9 °F 48.9 °F 41% 30.16 in 10.0 mi NNW 8.1 mph - N/A   Clear
3:53 PM 75.0 °F 48.9 °F 40% 30.16 in 10.0 mi NNW 3.5 mph - N/A   Mostly Cloudy
4:53 PM 73.0 °F 50.0 °F 44% 30.17 in 10.0 mi ENE 6.9 mph - N/A   Clear
5:53 PM 73.0 °F 50.0 °F 44% 30.17 in 10.0 mi ENE 6.9 mph - N/A   Clear
6:10 PM 71.1 °F 53.1 °F 53% 30.18 in 10.0 mi SE 8.1 mph - N/A   Scattered Clouds
6:53 PM 69.1 °F 53.1 °F 57% 30.19 in 10.0 mi SE 8.1 mph - N/A   Partly Cloudy
7:53 PM 68.0 °F 54.0 °F 61% 30.20 in 10.0 mi SE 4.6 mph - N/A   Clear
8:53 PM 66.9 °F 55.0 °F 66% 30.22 in 10.0 mi Calm Calm - N/A   Clear
9:53 PM 64.0 °F 55.9 °F 75% 30.24 in 10.0 mi East 4.6 mph - N/A   Scattered Clouds
10:53 PM 64.0 °F 54.0 °F 70% 30.25 in 10.0 mi ENE 5.8 mph - N/A   Clear
11:53 PM 64.9 °F 55.9 °F 73% 30.26 in 10.0 mi ENE 5.8 mph - N/A   Scattered Clouds